Simultaneous Nadir Overpasses (SNOs) Predictions

Prediction of SNOs over PacNW region [( 10.00, 139.50) to ( 22.70, 165.60)] between AQUA and NPP Satellites:

Table of predicted SNOs over PacNW region for the next 30.0 days since TLE Epoch: 10/15/2022
Index Date (AQUA) Time (AQUA) AQUA Lat,Lon Date (NPP) Time (NPP) NPP Lat,Lon Distance(km) Time Diff (sec)
1 10/17/2022 15:44:58 10.01, 150.53 10/17/2022 15:41:28 9.17, 147.47 348.58 210
2 10/23/2022 02:50:44 12.67, 160.80 10/23/2022 02:53:30 11.68, 156.24 508.38 166
3 10/25/2022 14:52:49 10.00, 163.62 10/25/2022 14:50:22 10.26, 160.42 350.83 147
4 10/25/2022 16:28:13 22.53, 141.74 10/25/2022 16:28:11 23.22, 138.14 376.42 2
5 11/02/2022 15:35:54 22.63, 154.88 11/02/2022 15:37:17 23.53, 150.93 416.38 83
6 11/05/2022 03:56:49 22.66, 142.77 11/05/2022 03:53:25 21.98, 139.55 339.75 204
